Location: Bethera
(33.2010°N, 79.7880°W)
Time: 17:05:58
(UTC-05:00)

Daily predictions for brighter satellites

Satellite Brightness Start Highest point End
(mag) Time Altitude Azimuth Time Altitude Azimuth Time Altitude Azimuth
BREEZE-M DEB (TANK) 3.1 17:51:35 10° NW 17:54:35 72° NE 18:03:21 10° SE
Cosmos 2278 Rocket 3.3 17:59:51 10° N 18:04:15 22° ENE 18:08:36 10° ESE
Cosmos 540 Rocket 3.9 18:00:12 10° S 18:05:01 41° ESE 18:09:51 10° NNE
Cosmos 1340 Rocket 4.3 18:02:50 10° SE 18:05:25 17° E 18:08:00 10° NE
Cosmos 1328 Rocket 3.6 18:01:14 10° N 18:05:39 62° E 18:10:02 10° SSE
USA 215 4.1 18:01:34 10° E 18:07:06 30° NE 18:12:38 10° NNW
Cosmos 2151 3.6 18:03:44 10° SSE 18:07:34 35° E 18:11:24 10° NNE
Cosmos 332 Rocket 4.0 18:03:41 10° SSW 18:08:28 79° WNW 18:13:20 10° NNE
MONITOR-E 4.4 18:06:43 10° SSE 18:09:47 50° ENE 18:12:52 10° N
Cosmos 1908 3.6 18:08:05 10° NNW 18:11:58 71° W 18:15:50 10° S
Cosmos 1515 Rocket 3.7 18:08:11 10° N 18:12:34 54° E 18:16:53 10° SSE
Abrixas 2.8 18:10:21 10° SSW 18:13:11 47° SE 18:15:49 11° ENE
SL-14 R/B 3.7 18:10:35 10° SSE 18:14:14 40° E 18:17:56 10° NNE
Cosmos 1844 3.9 18:09:57 10° N 18:15:32 50° ENE 18:21:08 10° SE
SKYMED 2 3.5 18:11:33 10° NNE 18:15:53 69° E 18:20:11 10° S
Cosmos 1674 4.1 18:12:29 10° SSW 18:16:04 40° W 18:19:43 10° N
SPOT 3 Rocket 3.9 18:11:05 10° S 18:16:11 70° WSW 18:21:21 10° NNW
MSX 3.9 18:10:44 10° SSE 18:16:26 85° WSW 18:22:12 10° NNW
Cosmos 1626 4.0 18:15:49 10° ESE 18:17:10 12° E 18:17:51 11° ENE
Elektron 3 4.1 18:14:53 10° NNW 18:19:14 58° NE 18:22:06 10° SE
Cosmos 1484 Rocket 2.7 18:15:52 10° SSE 18:19:43 69° ENE 18:23:39 10° N
COSMOS 2428 4.2 18:16:40 10° SW 18:21:56 37° WNW 18:27:13 10° N
Cosmos 1151 Rocket 3.3 18:18:06 10° N 18:22:12 44° E 18:26:17 10° SSE
Cosmos 1634 Rocket 3.9 18:16:30 10° N 18:22:38 66° E 18:28:44 10° SSE
Cosmos 1500 Rocket 3.6 18:18:28 10° S 18:22:47 84° W 18:27:08 10° N
SEDSat Delta rocket 4.0 18:18:01 10° W 18:23:41 58° SSW 18:28:35 10° ESE
Cosmos 2237 Rocket 2.2 18:19:46 10° S 18:25:20 71° ESE 18:30:57 10° NNE
Cosmos 1125 Rocket 3.8 18:21:24 10° N 18:26:18 41° ENE 18:31:11 10° SE
ALOS 3.7 18:26:50 10° ESE 18:29:32 15° ENE 18:32:15 10° NNE
SL-16 R/B 3.0 18:25:17 10° SSE 18:30:05 29° ESE 18:34:21 12° NE
Cosmos 44 3.5 18:25:34 10° SSW 18:30:53 88° ESE 18:36:02 10° NNE
BREEZE-M DEB (TANK) 2.4 18:25:29 10° NW 18:31:36 77° NE 18:34:26 10° SE
IDEFIX/ARIANE 42P 4.4 18:27:38 10° SSW 18:32:22 36° W 18:37:09 10° NNW
Cosmos 1300 2.6 18:32:52 10° N 18:36:40 61° E 18:40:26 10° SSE
Cosmos 1726 2.0 18:35:01 10° N 18:38:46 68° E 18:42:30 10° SSE
Cosmos 371 Rocket 4.1 18:34:15 10° SSW 18:38:55 52° WNW 18:43:37 10° N
Hubble Space Telescope 2.6 18:35:53 10° WSW 18:39:25 27° SSW 18:42:57 10° SE
Sich 1 4.2 18:35:57 10° SE 18:39:25 23° E 18:40:51 19° ENE
NOSS 0 Rocket 4.2 18:33:59 10° SSW 18:40:11 73° WNW 18:46:25 10° NNE
CZ-4 R/B 4.4 18:38:15 10° SW 18:40:58 18° W 18:43:43 10° NW
BREEZE-M DEB (TANK) 3.2 18:39:10 10° WSW 18:41:39 33° NW 18:43:03 17° NNE
Cosmos 1633 Rocket 4.2 18:39:08 10° SE 18:42:28 21° E 18:42:53 21° E
Lacrosse 5 rocket 3.2 18:42:10 10° N 18:43:38 14° NNE 18:43:38 14° NNE
FREGAT/IRIS 3.3 18:44:54 10° SE 18:47:34 32° E 18:47:34 32° E
OTV 4 1.0 18:45:59 10° WNW 18:48:49 40° NNE 18:49:25 35° NE
CENTAUR R/B 4.4 18:45:09 10° W 18:49:57 23° NW 18:55:13 10° N
Meteor 1-11 4.2 18:46:05 10° S 18:51:43 90° NNW 18:57:29 10° N
Resurs 01 Rocket 3.4 18:54:23 15° NNE 18:54:23 15° NNE 18:55:28 10° NNE
OAO 3 Rocket 3.9 18:49:51 10° W 18:54:36 51° SSW 18:58:33 14° SE
Helios 1B rocket 4.5 19:02:54 14° SE 19:02:54 14° SE 19:03:43 10° SSE
Meteor 1-28 Rocket 4.4 18:57:44 10° N 19:01:15 42° WNW 19:04:45 10° SSW
Aureole 2 Rocket 2.8 18:58:11 10° SSW 19:01:40 69° WNW 19:04:38 16° N
Cosmos 1844 Rocket 3.9 18:56:35 10° NW 19:01:57 45° WSW 19:07:15 10° S
COSMO-SKYMED 1 4.4 18:59:57 10° N 19:03:46 30° WNW 19:07:33 10° SW
CZ-3A R/B 3.7 18:59:54 10° NNW 19:04:00 29° NE 19:04:52 27° ENE
Iridium 4 Rocket 4.3 19:02:09 10° SSE 19:05:05 27° ESE 19:05:05 27° ESE
Cosmos 1707 Rocket 3.8 19:03:42 10° N 19:07:50 43° E 19:11:58 10° SSE
FengYun 1-2 T 4.5 19:02:41 10° SE 19:07:57 45° ENE 19:13:12 10° N
Cosmos 1461 2.8 19:05:13 10° SSW 19:09:26 66° ESE 19:10:31 46° NE
SJ-6B 2.7 19:06:54 10° SSE 19:10:54 83° E 19:15:01 10° N
Cosmos 1666 Rocket 3.4 19:09:33 10° S 19:13:49 64° E 19:15:24 36° NNE
Cosmos 2279 Rocket 4.1 19:08:45 10° N 19:14:58 79° W 19:21:11 10° S
Intelsat 5-1 Rocket 3.6 19:14:20 10° SW 19:16:58 23° S 19:18:34 20° SE
Milstar 3 3.6 19:12:07 10° W 19:18:24 46° SSW 19:23:49 18° SE
Cosmos 2058 4.4 19:14:58 10° SSW 19:18:47 36° W 19:22:36 10° NNW
FENGYUN 3A 3.6 19:17:22 10° SSE 19:22:35 57° ENE 19:27:50 10° N
Cosmos 304 Rocket 4.2 19:20:08 10° SSW 19:24:53 63° WNW 19:28:08 20° N
Cosmos 2333 Rocket 4.2 19:20:50 10° WSW 19:25:27 26° WNW 19:30:06 10° N
Cosmos 1703 4.0 19:22:55 10° SSW 19:26:43 52° W 19:29:16 19° N
Cosmos 773 Rocket 4.0 19:25:28 10° S 19:30:20 57° ESE 19:30:20 57° ESE
Nadezhda 4 Rocket 3.9 19:24:30 10° S 19:30:43 89° E 19:37:03 10° N
Atlas Centaur 2 3.8 19:28:30 10° WSW 19:31:28 17° SSW 19:33:48 11° S
Cosmos 1356 Rocket 4.2 19:39:04 10° SSW 19:42:56 48° W 19:43:35 43° NW
Cosmos 1092 Rocket 3.9 19:41:42 10° S 19:48:00 88° E 19:51:46 27° N
Cosmos 2278 Rocket 3.3 19:43:08 10° NW 19:48:27 43° WSW 19:53:45 10° S
USA 215 3.3 19:45:33 25° SSE 19:49:39 74° SW 19:56:13 10° NW
Cosmos 1626 3.9 19:48:52 10° SW 19:52:11 30° W 19:52:37 29° WNW
Aureole 1 Rocket 3.7 19:55:16 10° SSW 19:59:15 66° SW 19:59:15 66° SW
Haruka 4.4 20:00:41 10° W 20:05:53 80° S 20:09:16 51° ESE
ALOS 3.3 20:02:09 10° S 20:06:34 43° W 20:11:01 10° NNW
BREEZE-M DEB (TANK) 3.8 20:05:42 10° SW 20:35:25 - NE 20:08:58 60° S
Spot 2 Rocket 4.4 20:07:08 10° S 20:11:57 45° W 20:16:48 10° NNW
SL-16 R/B 3.8 20:09:06 10° SW 20:14:03 31° WNW 20:16:18 23° NNW
USA 229 DEB 4.1 20:25:30 10° SW 20:31:47 57° WNW 20:31:47 57° WNW
USA 229 4.1 20:25:35 10° SW 20:31:49 57° WNW 20:31:49 57° WNW
H-2A ROCKET BODY 4.2 20:56:01 10° W 21:02:29 29° WSW 21:02:29 29° WSW
